This demonstration page uses our WeatherBlox Daily Observations layout. Learn more.

Left ArrowRight Arrow

39.01783, -85.05884

Hourly Observations for January 26, 2020

Temp ( °F °C ) Dew Point ( °F °C ) Humidity (%) Winds ( mph kmh ) Pressure ( in mb ) Visibility ( mi km ) Precip ( " mm )
12:52 am 00:52 Cloudy 32 0 29 -1.7 88 88 W 17 28 30.00 1016 8 13 0.00 0.00
1:31 am 01:31 Cloudy 32 0 28 -2.2 85 85 W 12 19 30.04 1017 8 13 0.00 0.00
1:52 am 01:52 Cloudy 32 0 28 -2.2 85 85 W 8 13 30.01 1016 8 13 0.00 0.00
2:52 am 02:52 Cloudy 32 0 28 -2.2 85 85 WSW 8 13 30.01 1016 9 14 0.00 0.00
3:52 am 03:52 Cloudy 32 0 27 -2.8 82 82 WSW 7 11 30.01 1016 8 13 0.00 0.00
4:52 am 04:52 Cloudy 32 0 28 -2.2 85 85 WSW 8 13 30.00 1016 10 16 0.00 0.00
5:52 am 05:52 Cloudy 32 0 27 -2.8 82 82 SW 10 17 30.01 1016 10 16 0.00 0.00
6:52 am 06:52 Cloudy 32 0 27 -2.8 82 82 WSW 7 11 30.01 1016 8 13 0.00 0.00
7:52 am 07:52 Cloudy 32 0 27 -2.8 82 82 SW 9 15 30.02 1017 8 13 0.00 0.00
8:52 am 08:52 Cloudy 32 0 27 -2.8 82 82 WSW 7 11 30.02 1017 7 11 0.00 0.00
9:52 am 09:52 Cloudy 32 0 27 -2.8 82 82 SW 10 17 30.02 1017 7 11 0.00 0.00
10:52 am 10:52 Cloudy 33 0.6 27 -2.8 78 78 SW 12 19 30.02 1017 8 13 0.00 0.00
11:52 am 11:52 Cloudy 34 1.1 28 -2.2 79 79 SW 12 19 30.02 1017 10 16 0.00 0.00
12:52 pm 12:52 Cloudy 36 2.2 29 -1.7 76 76 WSW 10 17 29.99 1016 10 16 0.00 0.00
1:15 pm 13:15 Mostly Cloudy 38 3.3 29 -1.7 70 70 W 10 17 29.99 1016 10 16 0.00 0.00
1:52 pm 13:52 Mostly Cloudy 39 3.9 29 -1.7 67 67 SW 9 15 29.96 1014 10 16 0.00 0.00
2:52 pm 14:52 Mostly Cloudy 42 5.6 30 -1.1 62 62 SW 10 17 29.94 1014 10 16 0.00 0.00
3:52 pm 15:52 Mostly Cloudy 43 6.1 30 -1.1 60 60 SW 12 19 29.93 1014 10 16 0.00 0.00
4:52 pm 16:52 Mostly Sunny 42 5.6 29 -1.7 60 60 SW 9 15 29.93 1014 10 16 0.00 0.00
5:52 pm 17:52 Mostly Sunny 40 4.4 29 -1.7 65 65 SW 5 7 29.93 1014 10 16 0.00 0.00
6:52 pm 18:52 Clear 37 2.8 28 -2.2 70 70 S 3 6 29.93 1013 10 16 0.00 0.00
7:52 pm 19:52 Clear 36 2.2 28 -2.2 73 73 SW 6 9 29.93 1013 10 16 0.00 0.00
8:52 pm 20:52 Partly Cloudy 34 1.1 27 -2.8 76 76 SW 6 9 29.93 1013 10 16 0.00 0.00
9:52 pm 21:52 Mostly Cloudy 36 2.2 28 -2.2 73 73 SW 7 11 29.92 1013 10 16 0.00 0.00
10:52 pm 22:52 Mostly Cloudy 35 1.7 28 -2.2 76 76 SW 3 6 29.91 1013 10 16 0.00 0.00
11:52 pm 23:52 Cloudy 33 0.6 28 -2.2 82 82 SW 3 6 29.91 1013 9 14 0.00 0.00

Powered by AerisWeather